Year,Month,Day,Hour,Minute,Value (Times are PST for temperature in C)
2007,07,25,00,00,15.00
2007,07,25,00,01,15.00
2007,07,25,00,02,14.90
2007,07,25,00,03,14.90
2007,07,25,00,04,14.90
2007,07,25,00,05,14.90
2007,07,25,00,06,14.90
2007,07,25,00,07,14.90
2007,07,25,00,08,14.90
2007,07,25,00,09,14.90
2007,07,25,00,10,14.90
2007,07,25,00,11,14.80
2007,07,25,00,12,14.80
2007,07,25,00,13,14.80
2007,07,25,00,14,14.80
2007,07,25,00,15,14.80
2007,07,25,00,16,14.80
2007,07,25,00,17,14.80
2007,07,25,00,18,14.80
2007,07,25,00,19,14.80
2007,07,25,00,20,14.80
2007,07,25,00,21,14.80
2007,07,25,00,22,14.80
2007,07,25,00,23,14.80
2007,07,25,00,24,14.80
2007,07,25,00,25,14.70
2007,07,25,00,26,14.70
2007,07,25,00,27,14.70
2007,07,25,00,28,14.70
2007,07,25,00,29,14.70
2007,07,25,00,30,14.70
2007,07,25,00,31,14.60
2007,07,25,00,32,14.60
2007,07,25,00,33,14.60
2007,07,25,00,34,14.60
2007,07,25,00,35,14.60
2007,07,25,00,36,14.60
2007,07,25,00,37,14.60
2007,07,25,00,38,14.60
2007,07,25,00,39,14.50
2007,07,25,00,40,14.50
2007,07,25,00,41,14.50
2007,07,25,00,42,14.40
2007,07,25,00,43,14.40
2007,07,25,00,44,14.40
2007,07,25,00,45,14.40
2007,07,25,00,46,14.40
2007,07,25,00,47,14.30
2007,07,25,00,48,14.30
2007,07,25,00,49,14.30
2007,07,25,00,50,14.30
2007,07,25,00,51,14.30
2007,07,25,00,52,14.30
2007,07,25,00,53,14.30
2007,07,25,00,54,14.30
2007,07,25,00,55,14.30
2007,07,25,00,56,14.30
2007,07,25,00,57,14.30
2007,07,25,00,58,14.30
2007,07,25,00,59,14.30
2007,07,25,01,00,14.40
2007,07,25,01,01,14.40
2007,07,25,01,02,14.40
2007,07,25,01,03,14.30
2007,07,25,01,04,14.30
2007,07,25,01,05,14.30
2007,07,25,01,06,14.30
2007,07,25,01,07,14.30
2007,07,25,01,08,14.30
2007,07,25,01,09,14.30
2007,07,25,01,10,14.30
2007,07,25,01,11,14.30
2007,07,25,01,12,14.20
2007,07,25,01,13,14.20
2007,07,25,01,14,14.20
2007,07,25,01,15,14.20
2007,07,25,01,16,14.20
2007,07,25,01,17,14.20
2007,07,25,01,18,14.20
2007,07,25,01,19,14.20
2007,07,25,01,20,14.20
2007,07,25,01,21,14.20
2007,07,25,01,22,14.20
2007,07,25,01,23,14.20
2007,07,25,01,24,14.20
2007,07,25,01,25,14.20
2007,07,25,01,26,14.20
2007,07,25,01,27,14.20
2007,07,25,01,28,14.20
2007,07,25,01,29,14.20
2007,07,25,01,30,14.20
2007,07,25,01,31,14.10
2007,07,25,01,32,14.10
2007,07,25,01,33,14.20
2007,07,25,01,34,14.20
2007,07,25,01,35,14.10
2007,07,25,01,36,14.10
2007,07,25,01,37,14.10
2007,07,25,01,38,14.10
2007,07,25,01,39,14.10
2007,07,25,01,40,14.10
2007,07,25,01,41,14.10
2007,07,25,01,42,14.10
2007,07,25,01,43,14.10
2007,07,25,01,44,14.10
2007,07,25,01,45,14.00
2007,07,25,01,46,14.00
2007,07,25,01,47,14.00
2007,07,25,01,48,14.00
2007,07,25,01,49,14.00
2007,07,25,01,50,13.90
2007,07,25,01,51,13.90
2007,07,25,01,52,13.90
2007,07,25,01,53,13.90
2007,07,25,01,54,13.90
2007,07,25,01,55,13.90
2007,07,25,01,56,13.90
2007,07,25,01,57,13.90
2007,07,25,01,58,13.90
2007,07,25,01,59,13.90
2007,07,25,02,00,13.90
2007,07,25,02,01,13.80
2007,07,25,02,02,13.80
2007,07,25,02,03,13.80
2007,07,25,02,04,13.80
2007,07,25,02,05,13.80
2007,07,25,02,06,13.80
2007,07,25,02,07,13.80
2007,07,25,02,08,13.80
2007,07,25,02,09,13.80
2007,07,25,02,10,13.70
2007,07,25,02,11,13.70
2007,07,25,02,12,13.70
2007,07,25,02,13,13.70
2007,07,25,02,14,13.70
2007,07,25,02,15,13.70
2007,07,25,02,16,13.70
2007,07,25,02,17,13.70
2007,07,25,02,18,13.70
2007,07,25,02,19,13.60
2007,07,25,02,20,13.60
2007,07,25,02,21,13.60
2007,07,25,02,22,13.60
2007,07,25,02,23,13.60
2007,07,25,02,24,13.60
2007,07,25,02,25,13.60
2007,07,25,02,26,13.60
2007,07,25,02,27,13.60
2007,07,25,02,28,13.50
2007,07,25,02,29,13.50
2007,07,25,02,30,13.50
2007,07,25,02,31,13.50
2007,07,25,02,32,13.50
2007,07,25,02,33,13.40
2007,07,25,02,34,13.40
2007,07,25,02,35,13.40
2007,07,25,02,36,13.40
2007,07,25,02,37,13.40
2007,07,25,02,38,13.40
2007,07,25,02,39,13.40
2007,07,25,02,40,13.40
2007,07,25,02,41,13.40
2007,07,25,02,42,13.40
2007,07,25,02,43,13.40
2007,07,25,02,44,13.40
2007,07,25,02,45,13.40
2007,07,25,02,46,13.40
2007,07,25,02,47,13.30
2007,07,25,02,48,13.30
2007,07,25,02,49,13.30
2007,07,25,02,50,13.30
2007,07,25,02,51,13.30
2007,07,25,02,52,13.20
2007,07,25,02,53,13.20
2007,07,25,02,54,13.20
2007,07,25,02,55,13.20
2007,07,25,02,56,13.20
2007,07,25,02,57,13.20
2007,07,25,02,58,13.10
2007,07,25,02,59,13.10
2007,07,25,03,00,13.10
2007,07,25,03,01,13.10
2007,07,25,03,02,13.00
2007,07,25,03,03,13.00
2007,07,25,03,04,13.00
2007,07,25,03,05,12.90
2007,07,25,03,06,12.90
2007,07,25,03,07,12.90
2007,07,25,03,08,12.90
2007,07,25,03,09,12.90
2007,07,25,03,10,12.90
2007,07,25,03,11,12.80
2007,07,25,03,12,12.80
2007,07,25,03,13,12.80
2007,07,25,03,14,12.80
2007,07,25,03,15,12.80
2007,07,25,03,16,12.80
2007,07,25,03,17,12.80
2007,07,25,03,18,12.80
2007,07,25,03,19,12.80
2007,07,25,03,20,12.80
2007,07,25,03,21,12.80
2007,07,25,03,22,12.80
2007,07,25,03,23,12.80
2007,07,25,03,24,12.80
2007,07,25,03,25,12.80
2007,07,25,03,26,12.80
2007,07,25,03,27,12.80
2007,07,25,03,28,12.80
2007,07,25,03,29,12.80
2007,07,25,03,30,12.80
2007,07,25,03,31,12.80
2007,07,25,03,32,12.80
2007,07,25,03,33,12.80
2007,07,25,03,34,12.80
2007,07,25,03,35,12.80
2007,07,25,03,36,12.80
2007,07,25,03,37,12.80
2007,07,25,03,38,12.80
2007,07,25,03,39,12.70
2007,07,25,03,40,12.70
2007,07,25,03,41,12.70
2007,07,25,03,42,12.70
2007,07,25,03,43,12.70
2007,07,25,03,44,12.70
2007,07,25,03,45,12.70
2007,07,25,03,46,12.70
2007,07,25,03,47,12.70
2007,07,25,03,48,12.70
2007,07,25,03,49,12.60
2007,07,25,03,50,12.60
2007,07,25,03,51,12.60
2007,07,25,03,52,12.60
2007,07,25,03,53,12.60
2007,07,25,03,54,12.60
2007,07,25,03,55,12.60
2007,07,25,03,56,12.50
2007,07,25,03,57,12.50
2007,07,25,03,58,12.50
2007,07,25,03,59,12.40
2007,07,25,04,00,12.40
2007,07,25,04,01,12.40
2007,07,25,04,02,12.40
2007,07,25,04,03,12.40
2007,07,25,04,04,12.30
2007,07,25,04,05,12.30
2007,07,25,04,06,12.30
2007,07,25,04,07,12.30
2007,07,25,04,08,12.30
2007,07,25,04,09,12.30
2007,07,25,04,10,12.30
2007,07,25,04,11,12.20
2007,07,25,04,12,12.20
2007,07,25,04,13,12.20
2007,07,25,04,14,12.20
2007,07,25,04,15,12.20
2007,07,25,04,16,12.20
2007,07,25,04,17,12.20
2007,07,25,04,18,12.10
2007,07,25,04,19,12.10
2007,07,25,04,20,12.10
2007,07,25,04,21,12.10
2007,07,25,04,22,12.10
2007,07,25,04,23,12.10
2007,07,25,04,24,12.10
2007,07,25,04,25,12.10
2007,07,25,04,26,12.10
2007,07,25,04,27,12.10
2007,07,25,04,28,12.10
2007,07,25,04,29,12.10
2007,07,25,04,30,12.10
2007,07,25,04,31,12.10
2007,07,25,04,32,12.10
2007,07,25,04,33,12.00
2007,07,25,04,34,12.00
2007,07,25,04,35,12.00
2007,07,25,04,36,12.00
2007,07,25,04,37,12.00
2007,07,25,04,38,12.00
2007,07,25,04,39,12.00
2007,07,25,04,40,11.90
2007,07,25,04,41,11.90
2007,07,25,04,42,11.90
2007,07,25,04,43,11.90
2007,07,25,04,44,11.90
2007,07,25,04,45,11.90
2007,07,25,04,46,11.90
2007,07,25,04,47,11.90
2007,07,25,04,48,11.90
2007,07,25,04,49,11.90
2007,07,25,04,50,11.90
2007,07,25,04,51,11.90
2007,07,25,04,52,11.90
2007,07,25,04,53,11.80
2007,07,25,04,54,11.80
2007,07,25,04,55,11.80
2007,07,25,04,56,11.80
2007,07,25,04,57,11.80
2007,07,25,04,58,11.80
2007,07,25,04,59,11.80
2007,07,25,05,00,11.80
2007,07,25,05,01,11.80
2007,07,25,05,02,11.80
2007,07,25,05,03,11.80
2007,07,25,05,04,11.80
2007,07,25,05,05,11.80
2007,07,25,05,06,11.80
2007,07,25,05,07,11.80
2007,07,25,05,08,11.80
2007,07,25,05,09,11.80
2007,07,25,05,10,11.80
2007,07,25,05,11,11.80
2007,07,25,05,12,11.80
2007,07,25,05,13,11.80
2007,07,25,05,14,11.80
2007,07,25,05,15,11.80
2007,07,25,05,16,11.80
2007,07,25,05,17,11.80
2007,07,25,05,18,11.70
2007,07,25,05,19,11.70
2007,07,25,05,20,11.70
2007,07,25,05,21,11.70
2007,07,25,05,22,11.70
2007,07,25,05,23,11.70
2007,07,25,05,24,11.70
2007,07,25,05,25,11.70
2007,07,25,05,26,11.70
2007,07,25,05,27,11.70
2007,07,25,05,28,11.70
2007,07,25,05,29,11.70
2007,07,25,05,30,11.70
2007,07,25,05,31,11.70
2007,07,25,05,32,11.60
2007,07,25,05,33,11.60
2007,07,25,05,34,11.60
2007,07,25,05,35,11.60
2007,07,25,05,36,11.60
2007,07,25,05,37,11.60
2007,07,25,05,38,11.60
2007,07,25,05,39,11.50
2007,07,25,05,40,11.50
2007,07,25,05,41,11.50
2007,07,25,05,42,11.50
2007,07,25,05,43,11.50
2007,07,25,05,44,11.50
2007,07,25,05,45,11.50
2007,07,25,05,46,11.40
2007,07,25,05,47,11.40
2007,07,25,05,48,11.40
2007,07,25,05,49,11.40
2007,07,25,05,50,11.40
2007,07,25,05,51,11.40
2007,07,25,05,52,11.40
2007,07,25,05,53,11.40
2007,07,25,05,54,11.40
2007,07,25,05,55,11.40
2007,07,25,05,56,11.40
2007,07,25,05,57,11.40
2007,07,25,05,58,11.40
2007,07,25,05,59,11.40
2007,07,25,06,00,11.40
2007,07,25,06,01,11.40
2007,07,25,06,02,11.40
2007,07,25,06,03,11.40
2007,07,25,06,04,11.40
2007,07,25,06,05,11.40
2007,07,25,06,06,11.40
2007,07,25,06,07,11.40
2007,07,25,06,08,11.40
2007,07,25,06,09,11.30
2007,07,25,06,10,11.30
2007,07,25,06,11,11.30
2007,07,25,06,12,11.30
2007,07,25,06,13,11.30
2007,07,25,06,14,11.30
2007,07,25,06,15,11.30
2007,07,25,06,16,11.30
2007,07,25,06,17,11.30
2007,07,25,06,18,11.40
2007,07,25,06,19,11.40
2007,07,25,06,20,11.40
2007,07,25,06,21,11.40
2007,07,25,06,22,11.40
2007,07,25,06,23,11.40
2007,07,25,06,24,11.40
2007,07,25,06,25,11.40
2007,07,25,06,26,11.40
2007,07,25,06,27,11.40
2007,07,25,06,28,11.40
2007,07,25,06,29,11.50
2007,07,25,06,30,11.50
2007,07,25,06,31,11.50
2007,07,25,06,32,11.50
2007,07,25,06,33,11.50
2007,07,25,06,34,11.50
2007,07,25,06,35,11.50
2007,07,25,06,36,11.50
2007,07,25,06,37,11.60
2007,07,25,06,38,11.60
2007,07,25,06,39,11.60
2007,07,25,06,40,11.60
2007,07,25,06,41,11.60
2007,07,25,06,42,11.60
2007,07,25,06,43,11.60
2007,07,25,06,44,11.60
2007,07,25,06,45,11.60
2007,07,25,06,46,11.70
2007,07,25,06,47,11.70
2007,07,25,06,48,11.70
2007,07,25,06,49,11.70
2007,07,25,06,50,11.80
2007,07,25,06,51,11.80
2007,07,25,06,52,11.80
2007,07,25,06,53,11.80
2007,07,25,06,54,11.80
2007,07,25,06,55,11.80
2007,07,25,06,56,11.90
2007,07,25,06,57,11.90
2007,07,25,06,58,11.90
2007,07,25,06,59,12.00
2007,07,25,07,00,12.00
2007,07,25,07,01,12.00
2007,07,25,07,02,12.10
2007,07,25,07,03,12.10
2007,07,25,07,04,12.10
2007,07,25,07,05,12.20
2007,07,25,07,06,12.20
2007,07,25,07,07,12.20
2007,07,25,07,08,12.20
2007,07,25,07,09,12.20
2007,07,25,07,10,12.20
2007,07,25,07,11,12.20
2007,07,25,07,12,12.20
2007,07,25,07,13,12.20
2007,07,25,07,14,12.30
2007,07,25,07,15,12.30
2007,07,25,07,16,12.30
2007,07,25,07,17,12.30
2007,07,25,07,18,12.30
2007,07,25,07,19,12.30
2007,07,25,07,20,12.30
2007,07,25,07,21,12.30
2007,07,25,07,22,12.40
2007,07,25,07,23,12.40
2007,07,25,07,24,12.40
2007,07,25,07,25,12.40
2007,07,25,07,26,12.40
2007,07,25,07,27,12.40
2007,07,25,07,28,12.50
2007,07,25,07,29,12.50
2007,07,25,07,30,12.50
2007,07,25,07,31,12.50
2007,07,25,07,32,12.60
2007,07,25,07,33,12.60
2007,07,25,07,34,12.60
2007,07,25,07,35,12.60
2007,07,25,07,36,12.70
2007,07,25,07,37,12.70
2007,07,25,07,38,12.70
2007,07,25,07,39,12.70
2007,07,25,07,40,12.70
2007,07,25,07,41,12.80
2007,07,25,07,42,12.80
2007,07,25,07,43,12.80
2007,07,25,07,44,12.90
2007,07,25,07,45,12.90
2007,07,25,07,46,12.90
2007,07,25,07,47,13.00
2007,07,25,07,48,13.00
2007,07,25,07,49,13.00
2007,07,25,07,50,13.10
2007,07,25,07,51,13.10
2007,07,25,07,52,13.20
2007,07,25,07,53,13.20
2007,07,25,07,54,13.20
2007,07,25,07,55,13.30
2007,07,25,07,56,13.30
2007,07,25,07,57,13.30
2007,07,25,07,58,13.40
2007,07,25,07,59,13.40
2007,07,25,08,00,13.40
2007,07,25,08,01,13.40
2007,07,25,08,02,13.50
2007,07,25,08,03,13.50
2007,07,25,08,04,13.60
2007,07,25,08,05,13.60
2007,07,25,08,06,13.70
2007,07,25,08,07,13.70
2007,07,25,08,08,13.70
2007,07,25,08,09,13.80
2007,07,25,08,10,13.80
2007,07,25,08,11,13.90
2007,07,25,08,12,13.90
2007,07,25,08,13,13.90
2007,07,25,08,14,14.00
2007,07,25,08,15,14.00
2007,07,25,08,16,14.10
2007,07,25,08,17,14.10
2007,07,25,08,18,14.20
2007,07,25,08,19,14.20
2007,07,25,08,20,14.20
2007,07,25,08,21,14.30
2007,07,25,08,22,14.30
2007,07,25,08,23,14.30
2007,07,25,08,24,14.40
2007,07,25,08,25,14.50
2007,07,25,08,26,14.60
2007,07,25,08,27,14.70
2007,07,25,08,28,14.70
2007,07,25,08,29,14.80
2007,07,25,08,30,15.00
2007,07,25,08,31,15.00
2007,07,25,08,32,15.00
2007,07,25,08,33,15.00
2007,07,25,08,34,15.10
2007,07,25,08,35,15.20
2007,07,25,08,36,15.30
2007,07,25,08,37,15.30
2007,07,25,08,38,15.40
2007,07,25,08,39,15.50
2007,07,25,08,40,15.60
2007,07,25,08,41,15.60
2007,07,25,08,42,15.70
2007,07,25,08,43,15.80
2007,07,25,08,44,15.90
2007,07,25,08,45,15.90
2007,07,25,08,46,15.90
2007,07,25,08,47,16.00
2007,07,25,08,48,16.00
2007,07,25,08,49,16.10
2007,07,25,08,50,16.10
2007,07,25,08,51,16.10
2007,07,25,08,52,16.20
2007,07,25,08,53,16.30
2007,07,25,08,54,16.40
2007,07,25,08,55,16.40
2007,07,25,08,56,16.40
2007,07,25,08,57,16.50
2007,07,25,08,58,16.60
2007,07,25,08,59,16.60
2007,07,25,09,00,16.60
2007,07,25,09,01,16.70
2007,07,25,09,02,16.70
2007,07,25,09,03,16.80
2007,07,25,09,04,16.80
2007,07,25,09,05,16.80
2007,07,25,09,06,16.80
2007,07,25,09,07,16.90
2007,07,25,09,08,17.00
2007,07,25,09,09,17.00
2007,07,25,09,10,17.10
2007,07,25,09,11,17.10
2007,07,25,09,12,17.10
2007,07,25,09,13,17.10
2007,07,25,09,14,17.10
2007,07,25,09,15,17.10
2007,07,25,09,16,17.20
2007,07,25,09,17,17.20
2007,07,25,09,18,17.20
2007,07,25,09,19,17.20
2007,07,25,09,20,17.20
2007,07,25,09,21,17.20
2007,07,25,09,22,17.30
2007,07,25,09,23,17.30
2007,07,25,09,24,17.30
2007,07,25,09,25,17.30
2007,07,25,09,26,17.40
2007,07,25,09,27,17.40
2007,07,25,09,28,17.40
2007,07,25,09,29,17.40
2007,07,25,09,30,17.40
2007,07,25,09,31,17.40
2007,07,25,09,32,17.50
2007,07,25,09,33,17.50
2007,07,25,09,34,17.50
2007,07,25,09,35,17.50
2007,07,25,09,36,17.50
2007,07,25,09,37,17.60
2007,07,25,09,38,17.60
2007,07,25,09,39,17.70
2007,07,25,09,40,17.70
2007,07,25,09,41,17.70
2007,07,25,09,42,17.80
2007,07,25,09,43,17.80
2007,07,25,09,44,17.80
2007,07,25,09,45,17.80
2007,07,25,09,46,17.80
2007,07,25,09,47,17.80
2007,07,25,09,48,17.90
2007,07,25,09,49,17.90
2007,07,25,09,50,18.00
2007,07,25,09,51,18.00
2007,07,25,09,52,18.10
2007,07,25,09,53,18.10
2007,07,25,09,54,18.20
2007,07,25,09,55,18.20
2007,07,25,09,56,18.20
2007,07,25,09,57,18.20
2007,07,25,09,58,18.20
2007,07,25,09,59,18.30
2007,07,25,10,00,18.30
2007,07,25,10,01,18.30
2007,07,25,10,02,18.30
2007,07,25,10,03,18.30
2007,07,25,10,04,18.30
2007,07,25,10,05,18.40
2007,07,25,10,06,18.40
2007,07,25,10,07,18.50
2007,07,25,10,08,18.60
2007,07,25,10,09,18.70
2007,07,25,10,10,18.80
2007,07,25,10,11,18.90
2007,07,25,10,12,19.00
2007,07,25,10,13,19.10
2007,07,25,10,14,19.10
2007,07,25,10,15,19.10
2007,07,25,10,16,19.10
2007,07,25,10,17,19.10
2007,07,25,10,18,19.20
2007,07,25,10,19,19.20
2007,07,25,10,20,19.20
2007,07,25,10,21,19.30
2007,07,25,10,22,19.30
2007,07,25,10,23,19.40
2007,07,25,10,24,19.50
2007,07,25,10,25,19.50
2007,07,25,10,26,19.50
2007,07,25,10,27,19.40
2007,07,25,10,28,19.50
2007,07,25,10,29,19.50
2007,07,25,10,30,19.60
2007,07,25,10,31,19.70
2007,07,25,10,32,19.80
2007,07,25,10,33,19.90
2007,07,25,10,34,20.00
2007,07,25,10,35,20.10
2007,07,25,10,36,20.10
2007,07,25,10,37,20.20
2007,07,25,10,38,20.30
2007,07,25,10,39,20.30
2007,07,25,10,40,20.30
2007,07,25,10,41,20.40
2007,07,25,10,42,20.40
2007,07,25,10,43,20.50
2007,07,25,10,44,20.50
2007,07,25,10,45,20.60
2007,07,25,10,46,20.50
2007,07,25,10,47,20.50
2007,07,25,10,48,20.50
2007,07,25,10,49,20.40
2007,07,25,10,50,20.50
2007,07,25,10,51,20.50
2007,07,25,10,52,20.60
2007,07,25,10,53,20.70
2007,07,25,10,54,20.70
2007,07,25,10,55,20.80
2007,07,25,10,56,20.70
2007,07,25,10,57,20.70
2007,07,25,10,58,20.60
2007,07,25,10,59,20.60
2007,07,25,11,00,20.60
2007,07,25,11,01,20.50
2007,07,25,11,02,20.50
2007,07,25,11,03,20.50
2007,07,25,11,04,20.50
2007,07,25,11,05,20.50
2007,07,25,11,06,20.50
2007,07,25,11,07,20.50
2007,07,25,11,08,20.50
2007,07,25,11,09,20.40
2007,07,25,11,10,20.50
2007,07,25,11,11,20.50
2007,07,25,11,12,20.40
2007,07,25,11,13,20.40
2007,07,25,11,14,20.50
2007,07,25,11,15,20.60
2007,07,25,11,16,20.60
2007,07,25,11,17,20.70
2007,07,25,11,18,20.70
2007,07,25,11,19,20.70
2007,07,25,11,20,20.80
2007,07,25,11,21,20.80
2007,07,25,11,22,20.80
2007,07,25,11,23,20.80
2007,07,25,11,24,20.80
2007,07,25,11,25,20.70
2007,07,25,11,26,20.80
2007,07,25,11,27,20.80
2007,07,25,11,28,20.80
2007,07,25,11,29,20.80
2007,07,25,11,30,20.80
2007,07,25,11,31,20.90
2007,07,25,11,32,20.90
2007,07,25,11,33,20.90
2007,07,25,11,34,20.80
2007,07,25,11,35,20.80
2007,07,25,11,36,20.80
2007,07,25,11,37,20.90
2007,07,25,11,38,20.90
2007,07,25,11,39,21.00
2007,07,25,11,40,21.00
2007,07,25,11,41,21.00
2007,07,25,11,42,21.10
2007,07,25,11,43,21.20
2007,07,25,11,44,21.30
2007,07,25,11,45,21.30
2007,07,25,11,46,21.40
2007,07,25,11,47,21.50
2007,07,25,11,48,21.60
2007,07,25,11,49,21.70
2007,07,25,11,50,21.80
2007,07,25,11,51,22.00
2007,07,25,11,52,22.10
2007,07,25,11,53,22.30
2007,07,25,11,54,22.40
2007,07,25,11,55,22.40
2007,07,25,11,56,22.50
2007,07,25,11,57,22.60
2007,07,25,11,58,22.60
2007,07,25,11,59,22.60
2007,07,25,12,00,22.60
2007,07,25,12,01,22.60
2007,07,25,12,02,22.60
2007,07,25,12,03,22.60
2007,07,25,12,04,22.70
2007,07,25,12,05,22.70
2007,07,25,12,06,22.70
2007,07,25,12,07,22.80
2007,07,25,12,08,22.80
2007,07,25,12,09,22.90
2007,07,25,12,10,23.00
2007,07,25,12,11,23.00
2007,07,25,12,12,23.00
2007,07,25,12,13,23.00
2007,07,25,12,14,22.90
2007,07,25,12,15,22.90
2007,07,25,12,16,22.90
2007,07,25,12,17,22.90
2007,07,25,12,18,23.00
2007,07,25,12,19,23.00
2007,07,25,12,20,23.10
2007,07,25,12,21,23.10
2007,07,25,12,22,23.20
2007,07,25,12,23,23.20
2007,07,25,12,24,23.30
2007,07,25,12,25,23.30
2007,07,25,12,26,23.30
2007,07,25,12,27,23.30
2007,07,25,12,28,23.20
2007,07,25,12,29,23.20
2007,07,25,12,30,23.20
2007,07,25,12,31,23.10
2007,07,25,12,32,23.10
2007,07,25,12,33,23.00
2007,07,25,12,34,23.00
2007,07,25,12,35,23.00
2007,07,25,12,36,23.00
2007,07,25,12,37,23.10
2007,07,25,12,38,23.20
2007,07,25,12,39,23.30
2007,07,25,12,40,23.40
2007,07,25,12,41,23.40
2007,07,25,12,42,23.40
2007,07,25,12,43,23.40
2007,07,25,12,44,23.40
2007,07,25,12,45,23.50
2007,07,25,12,46,23.60
2007,07,25,12,47,23.70
2007,07,25,12,48,23.70
2007,07,25,12,49,23.80
2007,07,25,12,50,23.90
2007,07,25,12,51,24.00
2007,07,25,12,52,24.10
2007,07,25,12,53,24.20
2007,07,25,12,54,24.30
2007,07,25,12,55,24.30
2007,07,25,12,56,24.30
2007,07,25,12,57,24.30
2007,07,25,12,58,24.40
2007,07,25,12,59,24.50
2007,07,25,13,00,24.60
2007,07,25,13,01,24.60
2007,07,25,13,02,24.70
2007,07,25,13,03,24.70
2007,07,25,13,04,24.80
2007,07,25,13,05,24.80
2007,07,25,13,06,24.80
2007,07,25,13,07,24.80
2007,07,25,13,08,24.90
2007,07,25,13,09,25.00
2007,07,25,13,10,25.10
2007,07,25,13,11,25.20
2007,07,25,13,12,25.20
2007,07,25,13,13,25.20
2007,07,25,13,14,25.30
2007,07,25,13,15,25.30
2007,07,25,13,16,25.30
2007,07,25,13,17,25.30
2007,07,25,13,18,25.30
2007,07,25,13,19,25.30
2007,07,25,13,20,25.30
2007,07,25,13,21,25.10
2007,07,25,13,22,25.00
2007,07,25,13,23,24.90
2007,07,25,13,24,24.90
2007,07,25,13,25,24.90
2007,07,25,13,26,24.90
2007,07,25,13,27,24.90
2007,07,25,13,28,24.80
2007,07,25,13,29,24.80
2007,07,25,13,30,24.80
2007,07,25,13,31,24.80
2007,07,25,13,32,24.80
2007,07,25,13,33,24.80
2007,07,25,13,34,24.90
2007,07,25,13,35,24.90
2007,07,25,13,36,24.90
2007,07,25,13,37,25.00
2007,07,25,13,38,25.00
2007,07,25,13,39,25.00
2007,07,25,13,40,25.10
2007,07,25,13,41,25.00
2007,07,25,13,42,25.00
2007,07,25,13,43,25.10
2007,07,25,13,44,25.10
2007,07,25,13,45,25.10
2007,07,25,13,46,25.10
2007,07,25,13,47,25.20
2007,07,25,13,48,25.20
2007,07,25,13,49,25.20
2007,07,25,13,50,25.30
2007,07,25,13,51,25.30
2007,07,25,13,52,25.40
2007,07,25,13,53,25.40
2007,07,25,13,54,25.40
2007,07,25,13,55,25.40
2007,07,25,13,56,25.30
2007,07,25,13,57,25.30
2007,07,25,13,58,25.30
2007,07,25,13,59,25.30
2007,07,25,14,00,25.30
2007,07,25,14,01,25.20
2007,07,25,14,02,25.20
2007,07,25,14,03,25.10
2007,07,25,14,04,25.10
2007,07,25,14,05,25.10
2007,07,25,14,06,25.10
2007,07,25,14,07,25.20
2007,07,25,14,08,25.30
2007,07,25,14,09,25.30
2007,07,25,14,10,25.30
2007,07,25,14,11,25.30
2007,07,25,14,12,25.30
2007,07,25,14,13,25.40
2007,07,25,14,14,25.40
2007,07,25,14,15,25.50
2007,07,25,14,16,25.60
2007,07,25,14,17,25.70
2007,07,25,14,18,25.70
2007,07,25,14,19,25.90
2007,07,25,14,20,25.90
2007,07,25,14,21,25.90
2007,07,25,14,22,25.90
2007,07,25,14,23,25.90
2007,07,25,14,24,26.00
2007,07,25,14,25,26.10
2007,07,25,14,26,26.10
2007,07,25,14,27,26.20
2007,07,25,14,28,26.20
2007,07,25,14,29,26.20
2007,07,25,14,30,26.20
2007,07,25,14,31,26.10
2007,07,25,14,32,26.10
2007,07,25,14,33,26.10
2007,07,25,14,34,26.10
2007,07,25,14,35,26.10
2007,07,25,14,36,26.20
2007,07,25,14,37,26.20
2007,07,25,14,38,26.30
2007,07,25,14,39,26.40
2007,07,25,14,40,26.40
2007,07,25,14,41,26.50
2007,07,25,14,42,26.60
2007,07,25,14,43,26.60
2007,07,25,14,44,26.60
2007,07,25,14,45,26.60
2007,07,25,14,46,26.60
2007,07,25,14,47,26.60
2007,07,25,14,48,26.60
2007,07,25,14,49,26.60
2007,07,25,14,50,26.70
2007,07,25,14,51,26.70
2007,07,25,14,52,26.70
2007,07,25,14,53,26.70
2007,07,25,14,54,26.70
2007,07,25,14,55,26.80
2007,07,25,14,56,26.80
2007,07,25,14,57,26.80
2007,07,25,14,58,26.90
2007,07,25,14,59,26.90
2007,07,25,15,00,26.90
2007,07,25,15,01,27.00
2007,07,25,15,02,27.10
2007,07,25,15,03,27.10
2007,07,25,15,04,27.10
2007,07,25,15,05,27.10
2007,07,25,15,06,27.10
2007,07,25,15,07,27.10
2007,07,25,15,08,27.10
2007,07,25,15,09,27.10
2007,07,25,15,10,27.10
2007,07,25,15,11,27.10
2007,07,25,15,12,27.10
2007,07,25,15,13,27.00
2007,07,25,15,14,27.00
2007,07,25,15,15,26.90
2007,07,25,15,16,26.80
2007,07,25,15,17,26.80
2007,07,25,15,18,26.80
2007,07,25,15,19,26.80
2007,07,25,15,20,26.80
2007,07,25,15,21,26.60
2007,07,25,15,22,26.40
2007,07,25,15,23,26.30
2007,07,25,15,24,26.10
2007,07,25,15,25,26.00
2007,07,25,15,26,25.90
2007,07,25,15,27,25.90
2007,07,25,15,28,26.00
2007,07,25,15,29,26.10
2007,07,25,15,30,26.20
2007,07,25,15,31,26.20
2007,07,25,15,32,26.30
2007,07,25,15,33,26.40
2007,07,25,15,34,26.40
2007,07,25,15,35,26.50
2007,07,25,15,36,26.60
2007,07,25,15,37,26.70
2007,07,25,15,38,26.70
2007,07,25,15,39,26.60
2007,07,25,15,40,26.60
2007,07,25,15,41,26.50
2007,07,25,15,42,26.40
2007,07,25,15,43,26.40
2007,07,25,15,44,26.40
2007,07,25,15,45,26.40
2007,07,25,15,46,26.50
2007,07,25,15,47,26.60
2007,07,25,15,48,26.70
2007,07,25,15,49,26.80
2007,07,25,15,50,26.90
2007,07,25,15,51,27.00
2007,07,25,15,52,27.00
2007,07,25,15,53,27.00
2007,07,25,15,54,27.00
2007,07,25,15,55,27.00
2007,07,25,15,56,26.90
2007,07,25,15,57,27.00
2007,07,25,15,58,27.00
2007,07,25,15,59,27.10
2007,07,25,16,00,27.10
2007,07,25,16,01,27.20
2007,07,25,16,02,27.30
2007,07,25,16,03,27.30
2007,07,25,16,04,27.30
2007,07,25,16,05,27.40
2007,07,25,16,06,27.40
2007,07,25,16,07,27.40
2007,07,25,16,08,27.50
2007,07,25,16,09,27.60
2007,07,25,16,10,27.60
2007,07,25,16,11,27.60
2007,07,25,16,12,27.60
2007,07,25,16,13,27.60
2007,07,25,16,14,27.60
2007,07,25,16,15,27.60
2007,07,25,16,16,27.50
2007,07,25,16,17,27.50
2007,07,25,16,18,27.40
2007,07,25,16,19,27.30
2007,07,25,16,20,27.30
2007,07,25,16,21,27.20
2007,07,25,16,22,27.20
2007,07,25,16,23,27.10
2007,07,25,16,24,27.10
2007,07,25,16,25,27.00
2007,07,25,16,26,26.90
2007,07,25,16,27,26.90
2007,07,25,16,28,26.80
2007,07,25,16,29,26.80
2007,07,25,16,30,26.60
2007,07,25,16,31,26.50
2007,07,25,16,32,26.50
2007,07,25,16,33,26.40
2007,07,25,16,34,26.30
2007,07,25,16,35,26.10
2007,07,25,16,36,26.10
2007,07,25,16,37,26.10
2007,07,25,16,38,26.10
2007,07,25,16,39,26.10
2007,07,25,16,40,26.10
2007,07,25,16,41,26.00
2007,07,25,16,42,25.90
2007,07,25,16,43,26.00
2007,07,25,16,44,26.00
2007,07,25,16,45,26.10
2007,07,25,16,46,26.20
2007,07,25,16,47,26.30
2007,07,25,16,48,26.40
2007,07,25,16,49,26.50
2007,07,25,16,50,26.60
2007,07,25,16,51,26.70
2007,07,25,16,52,26.70
2007,07,25,16,53,26.80
2007,07,25,16,54,26.80
2007,07,25,16,55,26.80
2007,07,25,16,56,26.90
2007,07,25,16,57,26.90
2007,07,25,16,58,26.90
2007,07,25,16,59,26.90
2007,07,25,17,00,26.90
2007,07,25,17,01,26.90
2007,07,25,17,02,26.90
2007,07,25,17,03,26.80
2007,07,25,17,04,26.80
2007,07,25,17,05,26.80
2007,07,25,17,06,26.70
2007,07,25,17,07,26.70
2007,07,25,17,08,26.60
2007,07,25,17,09,26.60
2007,07,25,17,10,26.60
2007,07,25,17,11,26.60
2007,07,25,17,12,26.50
2007,07,25,17,13,26.40
2007,07,25,17,14,26.40
2007,07,25,17,15,26.30
2007,07,25,17,16,26.30
2007,07,25,17,17,26.40
2007,07,25,17,18,26.40
2007,07,25,17,19,26.50